• In Belarus
  • List of Countries
  • For 7 days
  • Water Temperature
  • Satellite Maps
  • Weather Map
  • Weather Widgets
  • user-avatar
    Login

    Hourly Weather Omaruru

    Today, 15 November, Thursday

    Time Temperature Precipitation Wind Pressure Humidity
    00:00 +29°C° 0 mm 3 mps 660 mmHg 12%
    01:00 +28°C° 0 mm 2 mps 660 mmHg 13%
    02:00 +27°C° 0 mm 2 mps 659 mmHg 14%
    03:00 +27°C° 0 mm 2 mps 659 mmHg 15%
    04:00 +26°C° 0 mm 1 mps 659 mmHg 15%
    05:00 +28°C° 0 mm 1 mps 660 mmHg 14%
    06:00 +29°C° 0 mm 1 mps 660 mmHg 12%
    07:00 +31°C° 0 mm 1 mps 661 mmHg 11%
    08:00 +34°C° 0 mm 2 mps 662 mmHg 10%
    09:00 +36°C° 0 mm 2 mps 662 mmHg 9%
    10:00 +38°C° 0 mm 3 mps 662 mmHg 8%
    11:00 +39°C° 0 mm 2 mps 662 mmHg 7%
    12:00 +40°C° 0 mm 2 mps 662 mmHg 7%
    13:00 +40°C° 0 mm 2 mps 661 mmHg 7%
    14:00 +40°C° 0 mm 2 mps 661 mmHg 7%
    15:00 +40°C° 0 mm 2 mps 661 mmHg 7%
    16:00 +40°C° 0 mm 2 mps 660 mmHg 8%
    17:00 +38°C° 0 mm 3 mps 660 mmHg 9%
    18:00 +37°C° 0 mm 4 mps 661 mmHg 11%
    19:00 +35°C° 0 mm 5 mps 661 mmHg 12%
    20:00 +34°C° 0 mm 4 mps 661 mmHg 14%
    21:00 +33°C° 0 mm 3 mps 661 mmHg 15%
    22:00 +31°C° 0 mm 2 mps 662 mmHg 16%
    23:00 +31°C° 0 mm 2 mps 661 mmHg 17%

    Tomorrow, 16 November, Friday

    Time Temperature Precipitation Wind Pressure Humidity
    00:00 +30°C° 0 mm 1 mps 661 mmHg 18%
    01:00 +29°C° 0 mm 1 mps 660 mmHg 19%
    02:00 +29°C° 0 mm 1 mps 660 mmHg 19%
    03:00 +28°C° 0 mm 1 mps 660 mmHg 20%
    04:00 +28°C° 0 mm 1 mps 660 mmHg 20%
    05:00 +29°C° 0 mm 1 mps 660 mmHg 18%
    06:00 +31°C° 0 mm 2 mps 661 mmHg 17%
    07:00 +32°C° 0 mm 2 mps 662 mmHg 15%
    08:00 +35°C° 0 mm 3 mps 662 mmHg 14%
    09:00 +37°C° 0 mm 3 mps 663 mmHg 12%
    10:00 +39°C° 0 mm 3 mps 663 mmHg 11%
    11:00 +39°C° 0 mm 3 mps 662 mmHg 10%
    12:00 +40°C° 0 mm 2 mps 662 mmHg 9%
    13:00 +40°C° 0 mm 2 mps 662 mmHg 9%
    14:00 +40°C° 0 mm 3 mps 661 mmHg 9%
    15:00 +40°C° 0 mm 4 mps 661 mmHg 10%
    16:00 +40°C° 0 mm 5 mps 661 mmHg 10%
    17:00 +39°C° 0.1 mm 5 mps 661 mmHg 13%
    18:00 +36°C° 0.1 mm 5 mps 661 mmHg 15%
    19:00 +35°C° 0.1 mm 5 mps 661 mmHg 17%
    20:00 +35°C° 0 mm 4 mps 662 mmHg 18%
    21:00 +34°C° 0 mm 4 mps 662 mmHg 18%
    22:00 +34°C° 0 mm 3 mps 662 mmHg 19%
    23:00 +33°C° 0 mm 3 mps 662 mmHg 19%

    Day after tomorrow, 17 November, Saturday

    Time Temperature Precipitation Wind Pressure Humidity
    00:00 +33°C° 0 mm 3 mps 661 mmHg 19%
    01:00 +33°C° 0 mm 3 mps 661 mmHg 19%
    02:00 +31°C° 0 mm 3 mps 661 mmHg 19%
    03:00 +32°C° 0 mm 4 mps 660 mmHg 19%
    04:00 +30°C° 0 mm 4 mps 660 mmHg 20%
    05:00 +32°C° 0 mm 4 mps 661 mmHg 18%
    06:00 +34°C° 0 mm 5 mps 661 mmHg 17%
    07:00 +35°C° 0 mm 5 mps 662 mmHg 15%
    08:00 +36°C° 0 mm 5 mps 662 mmHg 13%
    09:00 +39°C° 0 mm 5 mps 662 mmHg 11%
    10:00 +40°C° 0 mm 5 mps 662 mmHg 9%
    11:00 +41°C° 0 mm 4 mps 662 mmHg 9%
    12:00 +40°C° 0 mm 3 mps 661 mmHg 9%
    13:00 +40°C° 0 mm 3 mps 661 mmHg 9%
    14:00 +40°C° 0 mm 3 mps 660 mmHg 9%
    15:00 +40°C° 0 mm 3 mps 660 mmHg 9%
    16:00 +40°C° 0 mm 3 mps 660 mmHg 9%
    17:00 +40°C° 0 mm 4 mps 660 mmHg 11%
    18:00 +37°C° 0 mm 5 mps 660 mmHg 13%
    19:00 +36°C° 0 mm 5 mps 660 mmHg 15%
    20:00 +35°C° 0 mm 5 mps 661 mmHg 16%
    21:00 +34°C° 0 mm 5 mps 661 mmHg 17%
    22:00 +34°C° 0 mm 5 mps 661 mmHg 19%
    23:00 +33°C° 0 mm 4 mps 660 mmHg 20%

    18 November, Sunday

    Time Temperature Precipitation Wind Pressure Humidity
    00:00 +32°C° 0 mm 4 mps 660 mmHg 20%
    01:00 +30°C° 0 mm 3 mps 659 mmHg 21%
    02:00 +30°C° 0 mm 3 mps 659 mmHg 22%
    03:00 +30°C° 0 mm 3 mps 659 mmHg 22%
    04:00 +29°C° 0 mm 2 mps 659 mmHg 22%
    05:00 +30°C° 0 mm 3 mps 660 mmHg 21%
    06:00 +31°C° 0 mm 3 mps 660 mmHg 19%
    07:00 +33°C° 0 mm 4 mps 661 mmHg 18%
    08:00 +35°C° 0 mm 4 mps 661 mmHg 15%
    09:00 +37°C° 0 mm 3 mps 662 mmHg 13%
    10:00 +38°C° 0 mm 3 mps 662 mmHg 11%
    11:00 +40°C° 0 mm 4 mps 661 mmHg 11%
    12:00 +40°C° 0 mm 4 mps 661 mmHg 11%
    13:00 +41°C° 0 mm 4 mps 660 mmHg 10%
    14:00 +40°C° 0 mm 5 mps 660 mmHg 12%
    15:00 +39°C° 0 mm 6 mps 659 mmHg 14%
    16:00 +38°C° 0 mm 7 mps 659 mmHg 16%
    17:00 +35°C° 0 mm 6 mps 659 mmHg 20%
    18:00 +33°C° 0 mm 5 mps 659 mmHg 23%
    19:00 +30°C° 0 mm 4 mps 660 mmHg 27%
    20:00 +29°C° 0 mm 4 mps 660 mmHg 28%
    21:00 +28°C° 0 mm 3 mps 660 mmHg 30%
    22:00 +27°C° 0 mm 3 mps 660 mmHg 31%
    23:00 +26°C° 0 mm 2 mps 660 mmHg 32%

    19 November, Monday

    Time Temperature Precipitation Wind Pressure Humidity
    00:00 +26°C° 0 mm 2 mps 660 mmHg 33%
    01:00 +25°C° 0 mm 2 mps 659 mmHg 34%
    02:00 +25°C° 0 mm 2 mps 659 mmHg 36%
    03:00 +24°C° 0 mm 2 mps 659 mmHg 38%
    04:00 +23°C° 0 mm 2 mps 658 mmHg 39%
    05:00 +24°C° 0 mm 2 mps 659 mmHg 37%
    06:00 +25°C° 0 mm 2 mps 659 mmHg 35%
    07:00 +26°C° 0 mm 2 mps 660 mmHg 33%
    08:00 +28°C° 0 mm 2 mps 661 mmHg 28%
    09:00 +31°C° 0 mm 3 mps 661 mmHg 22%
    10:00 +35°C° 0 mm 3 mps 661 mmHg 17%
    11:00 +36°C° 0 mm 4 mps 661 mmHg 15%
    12:00 +37°C° 0 mm 4 mps 661 mmHg 14%
    13:00 +39°C° 0 mm 5 mps 660 mmHg 13%
    14:00 +39°C° 0 mm 5 mps 660 mmHg 13%
    15:00 +38°C° 0 mm 6 mps 660 mmHg 14%
    16:00 +38°C° 0 mm 6 mps 659 mmHg 15%
    17:00 +35°C° 0 mm 6 mps 660 mmHg 17%
    18:00 +33°C° 0 mm 5 mps 660 mmHg 20%
    19:00 +32°C° 0 mm 5 mps 660 mmHg 22%
    20:00 +30°C° 0 mm 5 mps 661 mmHg 24%
    21:00 +29°C° 0 mm 4 mps 661 mmHg 26%
    22:00 +28°C° 0 mm 3 mps 661 mmHg 28%
    23:00 +28°C° 0 mm 3 mps 660 mmHg 29%

    20 November, Tuesday

    Time Temperature Precipitation Wind Pressure Humidity
    00:00 +27°C° 0 mm 2 mps 660 mmHg 30%
    01:00 +26°C° 0 mm 2 mps 659 mmHg 31%
    02:00 +26°C° 0 mm 2 mps 659 mmHg 31%
    03:00 +26°C° 0 mm 2 mps 659 mmHg 31%
    04:00 +25°C° 0 mm 2 mps 659 mmHg 32%
    05:00 +26°C° 0 mm 2 mps 659 mmHg 29%
    06:00 +27°C° 0 mm 2 mps 660 mmHg 26%
    07:00 +28°C° 0 mm 2 mps 660 mmHg 23%
    08:00 +30°C° 0 mm 2 mps 661 mmHg 21%
    09:00 +32°C° 0 mm 2 mps 661 mmHg 18%
    10:00 +34°C° 0 mm 2 mps 661 mmHg 15%
    11:00 +35°C° 0 mm 2 mps 661 mmHg 15%
    12:00 +36°C° 0 mm 2 mps 660 mmHg 14%
    13:00 +36°C° 0 mm 2 mps 660 mmHg 13%
    14:00 +36°C° 0 mm 3 mps 660 mmHg 13%
    15:00 +36°C° 0 mm 4 mps 659 mmHg 13%
    16:00 +36°C° 0 mm 5 mps 659 mmHg 13%
    17:00 +34°C° 0 mm 4 mps 659 mmHg 14%
    18:00 +33°C° 0 mm 4 mps 659 mmHg 16%
    19:00 +30°C° 0 mm 4 mps 659 mmHg 17%
    20:00 +29°C° 0 mm 3 mps 659 mmHg 19%
    21:00 +27°C° 0 mm 3 mps 659 mmHg 21%
    22:00 +26°C° 0 mm 2 mps 659 mmHg 23%
    23:00 +25°C° 0 mm 2 mps 659 mmHg 25%
    Show more